Regional Weather Roundup
Issued by NWS

Home | Current Version | Previous Version | Graphics & Text | Print | Product List | Glossary On
Versions: 1 2 3 4 5 6 7 8 9 10 11 12 13 14 15 16 17 18 19 20 21 22 23 24 25 26 27 28 29 30 31 32 33 34 35 36 37 38 39 40 41 42 43 44 45 46 47 48 49 50
724
ASUS45 KTFX 270910
RWRMT
MONTANA REGIONAL WEATHER ROUNDUP
NATIONAL WEATHER SERVICE GREAT FALLS MT
300 AM MDT TUE SEP 27 2016

NOTE: "FAIR" INDICATES FEW OR NO CLOUDS BELOW 12000 FEET WITH NO
SIGNIFICANT WEATHER AND/OR OBSTRUCTIONS TO VISIBILITY.

MTZ001>007-043-271000-
WEST OF THE DIVIDE

CITY           SKY/WX    TMP DP  RH WIND       PRES   REMARKS
KALISPELL      CLEAR     41  41 100 CALM      30.07F
MISSOULA       CLEAR     48  44  86 CALM      30.14S
BUTTE          CLEAR     40  35  83 S3        30.26S
MULLAN PASS    CLEAR     58  38  47 S8        30.20F
ANACONDA         N/A     52  36  54 S7        30.21S
DEER LODGE       N/A     45  37  76 CALM      30.21F
EUREKA           N/A     50  45  81 CALM      30.03S
HAMILTON         N/A     57  43  58 S12G18    30.14S
LIBBY            N/A     45  45 100 CALM      30.04S
PLAINS           N/A     44  39  82 CALM      30.07F
RONAN            N/A     44  40  86 W1        30.11F
$$

MTZ008-052>055-271000-
SOUTHWEST MONTANA

CITY           SKY/WX    TMP DP  RH WIND       PRES   REMARKS
BOZEMAN        CLEAR     45  38  76 S5        30.19F
DILLON         CLEAR     49  37  63 S13       30.23F
W YELLOWSTONE    N/A     32  30  93 CALM      30.38S
ENNIS          CLEAR     50  36  57 S12       30.29F
THREE FORKS      N/A     40  21  46 CALM      30.16S
TWIN BRIDGES     N/A     45  36  70 E6        30.19F
$$

MTZ009-010-012-014-046-048-049-054-271000-
EAST SLOPES AND CENTRAL MONTANA

CITY           SKY/WX    TMP DP  RH WIND       PRES   REMARKS
CUT BANK       CLEAR     58  42  55 W10       30.02S
GREAT FALLS    CLEAR     56  41  57 S14       30.05F
MALMSTROM AFB  CLEAR     58  42  55 SW8       30.05F
HELENA         CLEAR     48  41  76 CALM      30.14S
AUGUSTA          N/A     56  38  50 S6        30.08F
BOWMANS CRNR     N/A     54  40  58 S8        30.08F
CHOTEAU          N/A     57  39  51 SW10      30.06F
CONRAD           N/A     52  43  71 S5        30.04S
FAIRFIELD        N/A     60  40  47 SW14      30.05F
POWER            N/A     50  40  68 SW7       30.04F
RAYNESFORD       N/A     67  37  33 W14       30.07F
$$

MTZ011-013-016-021-045-047-050-051-271000-
NORTH CENTRAL MONTANA

CITY           SKY/WX    TMP DP  RH WIND       PRES   REMARKS
HAVRE          CLEAR     50  44  80 W3        29.97F
LEWISTOWN      CLEAR     48  39  71 SE5       30.09F
N BAR RANCH      N/A     52  37  58 CALM      30.12F
CHINOOK          N/A     43  43 100 CALM      29.97S
DENTON           N/A     53  41  65 S15       30.02F
GEYSER           N/A     56  38  50 S6        30.08F
GRASS RANGE      N/A     58  40  51 W12       30.03F
JUDITH GAP       N/A     51  39  63 MISG      30.13S
ROY              N/A     60  42  52 MISG      30.02F
STANFORD         N/A     57  39  51 W10       30.09S
WINIFRED         N/A     62  40  43 MISG      30.04F
$$

MTZ017>020-022>027-061-062-271000-
NORTHEAST MONTANA

CITY           SKY/WX    TMP DP  RH WIND       PRES   REMARKS
GLASGOW        CLEAR     49  43  80 E10       29.98F
JORDAN           N/A     42  40  92 W3        30.01F
SIDNEY         CLEAR     42  39  89 CALM      30.03F
WOLF POINT     CLEAR     43  40  89 NE5       30.01F
POPLAR           N/A     43  39  87 N3        30.02F
SCOBEY           N/A     41  33  73 CALM      29.99F
$$

MTZ028>42-056>058-271000-
SOUTHCENTRAL AND SOUTHEAST MONTANA

CITY           SKY/WX    TMP DP  RH WIND       PRES   REMARKS
BAKER          CLEAR     43  40  89 CALM      30.09F
BILLINGS       CLEAR     61  44  53 SW17      30.10F
LIVINGSTON     CLEAR     47  38  71 NW15      30.17F
MILES CITY     CLEAR     50  45  83 S12       30.05F
BIG TIMBER     CLEAR     57  37  47 W7G16     30.17S
EKALAKA          N/A     55  42  61 SE5       30.07F
FORSYTH          N/A     48  48 100 S3        30.05F
HARLOWTON        N/A     56  40  55 NW10      30.12F
LAUREL           N/A     56  42  59 S7        30.09F
ROUNDUP          N/A     54  44  68 S10       29.99F
$$

REGIONAL REPORTS...DAKOTAS

CITY           SKY/WX    TMP DP  RH WIND       PRES   REMARKS
WILLISTON      CLEAR     40  36  86 CALM      30.03F
MINOT          CLEAR     43  37  79 SW8       30.01F
DICKINSON      CLEAR     42  37  82 W6        30.04F
WATFORD CITY     N/A     39  37  93 CALM      30.04F
BISMARCK       CLEAR     41  37  86 W3        30.03F
GRAND FORKS    CLEAR     40  36  86 W7        29.91F
FARGO          CLEAR     40  33  76 W5        29.92F
BUFFALO SD       N/A     49  42  77 W5        30.04F
RAPID CITY     CLEAR     43  38  82 CALM      30.13F
$$

REGIONAL REPORTS...WYOMING/IDAHO/WASHINGTON

CITY           SKY/WX    TMP DP  RH WIND       PRES   REMARKS
GILLETTE       CLEAR     55  44  66 VRB5      30.16F
SHERIDAN       CLEAR     44  38  79 CALM      30.14F
BUFFALO WY     CLEAR     56  30  37 W10       30.19F
CODY           CLEAR     52  43  71 SW3       30.22F
YELLOWSTONE LA   N/A     32  31  96 CALM      30.44F
IDAHO FALLS    CLOUDY    44  41  89 N5        30.27S
SALMON         CLEAR     43  43 100 CALM      30.23S
BOISE          CLEAR     62  42  47 SE10      30.10F
SPOKANE        CLEAR     62  43  49 S6        30.01R
$$

REGIONAL REPORTS...ALBERTA

CITY           SKY/WX    TMP DP  RH WIND       PRES   REMARKS
EDMONTON       PTCLDY    50  39  66 CALM      29.73S
CALGARY        PTCLDY    63  39  42 SW9       29.88F
LETHBRIDGE     CLEAR     55  43  62 SW14      29.93R
MEDICINE HAT   CLEAR     54  43  66 SW8       29.87F
WATERTON GATE    N/A     66  39  37 SW15G23     N/A
MILK RIVER       N/A     43  39  87 NW3         N/A
ONEFOUR          N/A     45  41  87 NE8         N/A
$$

REGIONAL REPORTS...SASKATCHEWAN

CITY           SKY/WX    TMP DP  RH WIND       PRES   REMARKS
SWIFT CURRENT  CLEAR     52  45  76 S16       29.91F
REGINA         CLEAR     39  36  87 SE9       30.00F
SASKATOON      CLEAR     46  39  76 S8        29.94F
CYPRESS HILLS    N/A     52  37  58 SW7         N/A
VAL MARIE        N/A     37  36  93 NE6         N/A
ROCKGLEN         N/A     46  41  81 S8          N/A
$$




USA.gov is the U.S. government's official web portal to all federal, state and local government web resources and services.